Tracking 19570 objects as of 21-Feb-2019
HD Live streaming from Space Station
objects crossing your sky now

METEOSAT 4 AKM

Track METEOSAT 4 AKM now!


NORAD ID: 20800
Int'l Code: 1989-020E
Perigee: 35,224.7 km
Apogee: 36,267.3 km
Inclination: 13.9 °
Period: 1,433.7 minutes
Semi major axis: 42116 km
RCS: 1 m2 (large)
Launch date: March 6, 1989
Source: European Space Agency (ESA)
Launch site: FRENCH GUIANA (FRGUI)

Note: This is a ROCKET BODY
aabbcc
Your satellite tracking list
Your tracking list is empty




NASA's NSSDC Master Catalog

Two Line Element Set (TLE):
1 20800U 89020E   19051.54756772 +.00000035 +00000-0 +00000-0 0  9996
2 20800 013.8994 351.9220 0123775 185.9736 005.6564 01.00442468089341
Source of the keplerian elements: AFSPC